ROA201 SCAR-SCEL

Flight info

Callsign ROA201
Flight time 2h 9m
Altitude 33000
Route LOBAG5L LOBAG UQ803 PUKTA/N0454F350 UQ803 SIMOK SIMOK6D
Aircraft A321/M-SDE3FGHIRWY/LB1

Departure

Time 2026-04-16 03:50
Airport Chacalluta International Airport (SCAR)

Arrival

Time 2026-04-16 05:59
Airport Comodoro Arturo Merino Benítez International Airport (SCEL)
Time Latitude Longitude Altitude Speed Heading
2026-04-16 03:13 -18.34955 -70.33655 128 ft 0 kts 108°
2026-04-16 03:39 -18.34950 -70.33673 155 ft 3 kts 108°
2026-04-16 03:39 -18.34944 -70.33692 155 ft 3 kts 96°
2026-04-16 03:40 -18.34945 -70.33712 155 ft 3 kts 65°
2026-04-16 03:40 -18.34955 -70.33730 155 ft 3 kts 35°
2026-04-16 03:40 -18.34967 -70.33736 155 ft 0 kts 21°
2026-04-16 03:42 -18.34965 -70.33736 155 ft 1 kts 21°
2026-04-16 03:42 -18.34956 -70.33733 155 ft 3 kts 17°
2026-04-16 03:43 -18.34927 -70.33724 155 ft 6 kts 17°
2026-04-16 03:43 -18.34871 -70.33704 155 ft 10 kts 19°
2026-04-16 03:43 -18.34794 -70.33675 155 ft 12 kts 19°
2026-04-16 03:43 -18.34725 -70.33650 156 ft 10 kts 19°
2026-04-16 03:44 -18.34654 -70.33623 157 ft 12 kts 20°
2026-04-16 03:44 -18.34569 -70.33592 159 ft 14 kts 19°
2026-04-16 03:44 -18.34473 -70.33558 162 ft 15 kts 19°
2026-04-16 03:44 -18.34368 -70.33519 165 ft 17 kts 20°
2026-04-16 03:45 -18.34263 -70.33479 168 ft 15 kts 20°
2026-04-16 03:45 -18.34177 -70.33447 170 ft 11 kts 19°
2026-04-16 03:45 -18.34114 -70.33425 172 ft 8 kts 19°
2026-04-16 03:45 -18.34074 -70.33412 173 ft 5 kts 14°
2026-04-16 03:46 -18.34038 -70.33410 174 ft 6 kts 353°
2026-04-16 03:46 -18.34005 -70.33422 174 ft 4 kts 334°
2026-04-16 03:46 -18.33991 -70.33432 175 ft 1 kts 323°
2026-04-16 03:46 -18.33988 -70.33434 175 ft 0 kts 318°
2026-04-16 03:47 -18.33978 -70.33446 174 ft 6 kts 311°
2026-04-16 03:48 -18.33952 -70.33506 174 ft 10 kts 284°
2026-04-16 03:48 -18.33950 -70.33541 174 ft 3 kts 240°
2026-04-16 03:48 -18.33964 -70.33550 174 ft 2 kts 204°
2026-04-16 03:49 -18.34044 -70.33581 172 ft 43 kts 199°
2026-04-16 03:49 -18.34573 -70.33776 155 ft 114 kts 199°
2026-04-16 03:49 -18.35488 -70.34109 210 ft 157 kts 199°
2026-04-16 03:50 -18.36512 -70.34464 865 ft 156 kts 195°
2026-04-16 03:50 -18.37649 -70.34522 1158 ft 170 kts 178°
2026-04-16 03:50 -18.38900 -70.34413 1275 ft 191 kts 175°
2026-04-16 03:50 -18.40303 -70.34270 1408 ft 213 kts 175°
2026-04-16 03:51 -18.41856 -70.34116 1540 ft 236 kts 175°
2026-04-16 03:51 -18.43572 -70.33955 1849 ft 256 kts 175°
2026-04-16 03:51 -18.45371 -70.33797 2511 ft 262 kts 175°
2026-04-16 03:51 -18.47198 -70.33647 3225 ft 265 kts 175°
2026-04-16 03:52 -18.49051 -70.33500 3934 ft 268 kts 175°
2026-04-16 03:52 -18.50924 -70.33354 4612 ft 272 kts 175°
2026-04-16 03:52 -18.52823 -70.33207 5247 ft 275 kts 175°
2026-04-16 03:52 -18.54745 -70.33061 5872 ft 277 kts 176°
2026-04-16 03:53 -18.56654 -70.32917 6472 ft 280 kts 176°
2026-04-16 03:53 -18.58635 -70.32765 7036 ft 283 kts 175°
2026-04-16 03:53 -18.60575 -70.32555 7576 ft 286 kts 173°
2026-04-16 03:53 -18.62558 -70.32278 8130 ft 289 kts 172°
2026-04-16 03:54 -18.64561 -70.31977 8660 ft 292 kts 172°
2026-04-16 03:54 -18.66588 -70.31671 9202 ft 295 kts 172°
2026-04-16 03:54 -18.68632 -70.31366 9747 ft 298 kts 172°
2026-04-16 03:54 -18.70695 -70.31063 10241 ft 301 kts 172°
2026-04-16 03:55 -18.72831 -70.30755 10392 ft 318 kts 172°
2026-04-16 03:55 -18.75084 -70.30432 10518 ft 335 kts 172°
2026-04-16 03:55 -18.77458 -70.30095 10638 ft 351 kts 172°
2026-04-16 03:55 -18.79917 -70.29747 10950 ft 360 kts 172°
2026-04-16 03:56 -18.82410 -70.29394 11404 ft 363 kts 172°
2026-04-16 03:56 -18.84923 -70.29037 11890 ft 366 kts 173°
2026-04-16 03:56 -18.87453 -70.28677 12362 ft 368 kts 173°
2026-04-16 03:56 -18.90007 -70.28315 12857 ft 371 kts 173°
2026-04-16 03:57 -18.92578 -70.27950 13341 ft 374 kts 173°
2026-04-16 03:57 -18.95166 -70.27582 13817 ft 376 kts 173°
2026-04-16 03:57 -18.97772 -70.27210 14227 ft 379 kts 173°
2026-04-16 03:57 -19.00397 -70.26836 14643 ft 382 kts 173°
2026-04-16 03:58 -19.03042 -70.26472 15051 ft 384 kts 173°
2026-04-16 03:58 -19.05670 -70.26125 15457 ft 387 kts 173°
2026-04-16 03:58 -19.08383 -70.25774 15863 ft 389 kts 173°
2026-04-16 03:58 -19.11082 -70.25425 16269 ft 392 kts 173°
2026-04-16 03:59 -19.13766 -70.25078 16661 ft 395 kts 173°
2026-04-16 03:59 -19.16501 -70.24723 17050 ft 397 kts 173°
2026-04-16 03:59 -19.19250 -70.24362 17433 ft 400 kts 173°
2026-04-16 03:59 -19.22022 -70.23994 17818 ft 402 kts 173°
2026-04-16 04:00 -19.24801 -70.23625 18198 ft 404 kts 173°
2026-04-16 04:00 -19.27606 -70.23255 18539 ft 407 kts 173°
2026-04-16 04:00 -19.30419 -70.22884 18861 ft 409 kts 173°
2026-04-16 04:00 -19.33252 -70.22513 19175 ft 411 kts 173°
2026-04-16 04:01 -19.36096 -70.22139 19486 ft 413 kts 173°
2026-04-16 04:01 -19.38954 -70.21763 19795 ft 415 kts 173°
2026-04-16 04:01 -19.41827 -70.21386 20094 ft 417 kts 174°
2026-04-16 04:01 -19.44736 -70.21250 20392 ft 419 kts 181°
2026-04-16 04:02 -19.47661 -70.21259 20695 ft 421 kts 181°
2026-04-16 04:02 -19.50601 -70.21271 20991 ft 423 kts 181°
2026-04-16 04:02 -19.53517 -70.21286 21280 ft 426 kts 181°
2026-04-16 04:02 -19.56486 -70.21301 21564 ft 428 kts 181°
2026-04-16 04:03 -19.59473 -70.21314 21849 ft 430 kts 181°
2026-04-16 04:03 -19.62470 -70.21324 22139 ft 432 kts 181°
2026-04-16 04:03 -19.65488 -70.21333 22410 ft 435 kts 181°
2026-04-16 04:03 -19.68525 -70.21341 22681 ft 437 kts 181°
2026-04-16 04:04 -19.71569 -70.21350 22949 ft 439 kts 181°
2026-04-16 04:04 -19.74631 -70.21360 23227 ft 441 kts 181°
2026-04-16 04:04 -19.77711 -70.21368 23489 ft 443 kts 181°
2026-04-16 04:04 -19.80802 -70.21376 23717 ft 445 kts 181°
2026-04-16 04:05 -19.83905 -70.21387 23957 ft 447 kts 181°
2026-04-16 04:05 -19.87019 -70.21398 24203 ft 448 kts 181°
2026-04-16 04:05 -19.90137 -70.21409 24461 ft 449 kts 181°
2026-04-16 04:05 -19.93268 -70.21422 24716 ft 450 kts 181°
2026-04-16 04:06 -19.96403 -70.21437 24970 ft 451 kts 182°
2026-04-16 04:06 -19.99548 -70.21452 25224 ft 452 kts 182°
2026-04-16 04:06 -20.02698 -70.21466 25477 ft 453 kts 182°
2026-04-16 04:06 -20.05860 -70.21478 25729 ft 454 kts 182°
2026-04-16 04:07 -20.09025 -70.21488 25980 ft 456 kts 182°
2026-04-16 04:07 -20.15367 -70.21505 26488 ft 458 kts 182°
2026-04-16 04:07 -20.18566 -70.21512 26746 ft 459 kts 182°
2026-04-16 04:08 -20.21754 -70.21522 26989 ft 460 kts 182°
2026-04-16 04:08 -20.24972 -70.21534 27229 ft 462 kts 183°
2026-04-16 04:08 -20.28156 -70.21547 27479 ft 463 kts 183°
2026-04-16 04:08 -20.30346 -70.21557 27645 ft 464 kts 183°
2026-04-16 04:09 -20.34629 -70.21575 27962 ft 466 kts 183°
2026-04-16 04:09 -20.36823 -70.21583 28117 ft 466 kts 183°
2026-04-16 04:09 -20.40051 -70.21595 28347 ft 468 kts 183°
2026-04-16 04:09 -20.43295 -70.21607 28580 ft 469 kts 183°
2026-04-16 04:10 -20.46551 -70.21617 28808 ft 470 kts 183°
2026-04-16 04:10 -20.49835 -70.21627 29039 ft 471 kts 183°
2026-04-16 04:10 -20.53135 -70.21636 29266 ft 473 kts 184°
2026-04-16 04:10 -20.56437 -70.21647 29479 ft 474 kts 184°
2026-04-16 04:11 -20.59703 -70.21662 29747 ft 474 kts 184°
2026-04-16 04:11 -20.63007 -70.21677 30085 ft 473 kts 184°
2026-04-16 04:11 -20.66294 -70.21690 30365 ft 472 kts 184°
2026-04-16 04:11 -20.69553 -70.21700 30636 ft 471 kts 184°
2026-04-16 04:12 -20.72830 -70.21707 30907 ft 471 kts 184°
2026-04-16 04:12 -20.76139 -70.21716 31177 ft 470 kts 184°
2026-04-16 04:12 -20.79374 -70.21728 31456 ft 470 kts 184°
2026-04-16 04:12 -20.82673 -70.21741 31729 ft 469 kts 185°
2026-04-16 04:13 -20.85929 -70.21755 32009 ft 468 kts 185°
2026-04-16 04:13 -20.89161 -70.21769 32287 ft 468 kts 185°
2026-04-16 04:13 -20.92412 -70.21782 32553 ft 467 kts 185°
2026-04-16 04:13 -20.95649 -70.21795 32831 ft 467 kts 185°
2026-04-16 04:14 -20.98910 -70.21805 32984 ft 466 kts 185°
2026-04-16 04:14 -21.02115 -70.21814 33010 ft 461 kts 185°
2026-04-16 04:14 -21.08516 -70.21835 33001 ft 457 kts 185°
2026-04-16 04:15 -21.14879 -70.21862 33006 ft 457 kts 185°
2026-04-16 04:15 -21.21236 -70.21885 33009 ft 457 kts 185°
2026-04-16 04:16 -21.27556 -70.21905 33007 ft 457 kts 185°
2026-04-16 04:16 -21.33935 -70.21923 33011 ft 457 kts 185°
2026-04-16 04:17 -21.40289 -70.21947 33011 ft 457 kts 185°
2026-04-16 04:17 -21.46635 -70.21965 33015 ft 457 kts 185°
2026-04-16 04:18 -21.52963 -70.21990 33014 ft 457 kts 185°
2026-04-16 04:18 -21.59324 -70.22021 33012 ft 457 kts 185°
2026-04-16 04:19 -21.65675 -70.22038 33012 ft 457 kts 185°
2026-04-16 04:19 -21.72031 -70.22057 33010 ft 457 kts 185°
2026-04-16 04:20 -21.78406 -70.22080 33013 ft 457 kts 185°
2026-04-16 04:20 -21.84757 -70.22098 33008 ft 457 kts 185°
2026-04-16 04:21 -21.91048 -70.22376 33007 ft 451 kts 193°
2026-04-16 04:21 -21.97257 -70.23358 33004 ft 451 kts 193°
2026-04-16 04:22 -22.03484 -70.24333 33001 ft 451 kts 193°
2026-04-16 04:22 -22.09699 -70.25306 33003 ft 452 kts 193°
2026-04-16 04:23 -22.15901 -70.26281 33000 ft 451 kts 193°
2026-04-16 04:23 -22.22099 -70.27259 32996 ft 451 kts 193°
2026-04-16 04:24 -22.28333 -70.28245 32993 ft 452 kts 193°
2026-04-16 04:24 -22.34578 -70.29235 32992 ft 452 kts 193°
2026-04-16 04:25 -22.40765 -70.30217 32994 ft 452 kts 193°
2026-04-16 04:25 -22.46992 -70.31198 32994 ft 452 kts 193°
2026-04-16 04:26 -22.53225 -70.32178 32997 ft 452 kts 193°
2026-04-16 04:26 -22.59454 -70.33161 32998 ft 452 kts 193°
2026-04-16 04:27 -22.65680 -70.34148 32998 ft 452 kts 193°
2026-04-16 04:27 -22.71900 -70.35135 32993 ft 452 kts 193°
2026-04-16 04:28 -22.78152 -70.36130 33147 ft 456 kts 193°
2026-04-16 04:28 -22.81296 -70.36633 33368 ft 457 kts 193°
2026-04-16 04:28 -22.84444 -70.37134 33618 ft 457 kts 193°
2026-04-16 04:29 -22.87541 -70.37619 33871 ft 457 kts 191°
2026-04-16 04:29 -22.90736 -70.37800 34100 ft 461 kts 184°
2026-04-16 04:29 -22.93950 -70.37811 34305 ft 461 kts 185°
2026-04-16 04:29 -22.97160 -70.37830 34508 ft 461 kts 185°
2026-04-16 04:30 -23.00373 -70.37856 34694 ft 461 kts 185°
2026-04-16 04:30 -23.03577 -70.37884 34898 ft 461 kts 185°
2026-04-16 04:30 -23.10010 -70.37941 34988 ft 461 kts 185°
2026-04-16 04:31 -23.16431 -70.37992 34993 ft 461 kts 185°
2026-04-16 04:31 -23.22862 -70.38043 34994 ft 461 kts 185°
2026-04-16 04:32 -23.29246 -70.38093 35000 ft 461 kts 185°
2026-04-16 04:32 -23.35665 -70.38146 35003 ft 461 kts 185°
2026-04-16 04:33 -23.42085 -70.38189 35008 ft 462 kts 185°
2026-04-16 04:33 -23.48512 -70.38231 35012 ft 462 kts 185°
2026-04-16 04:34 -23.54945 -70.38279 34998 ft 463 kts 185°
2026-04-16 04:34 -23.61404 -70.38327 34991 ft 464 kts 185°
2026-04-16 04:35 -23.67870 -70.38380 34989 ft 465 kts 185°
2026-04-16 04:35 -23.74345 -70.38430 34989 ft 465 kts 185°
2026-04-16 04:36 -23.80834 -70.38474 34985 ft 466 kts 184°
2026-04-16 04:36 -23.87329 -70.38324 35002 ft 468 kts 182°
2026-04-16 04:37 -23.93838 -70.38045 35000 ft 468 kts 182°
2026-04-16 04:37 -24.00344 -70.37784 35006 ft 468 kts 183°
2026-04-16 04:38 -24.06851 -70.37567 35008 ft 468 kts 183°
2026-04-16 04:38 -24.13363 -70.37358 35011 ft 467 kts 183°
2026-04-16 04:39 -24.19817 -70.37141 35009 ft 467 kts 183°
2026-04-16 04:39 -24.26321 -70.36923 35017 ft 468 kts 183°
2026-04-16 04:40 -24.32828 -70.36703 35016 ft 468 kts 183°
2026-04-16 04:40 -24.39337 -70.36486 35020 ft 467 kts 183°
2026-04-16 04:41 -24.45837 -70.36265 35020 ft 467 kts 183°
2026-04-16 04:41 -24.52345 -70.36044 35022 ft 467 kts 183°
2026-04-16 04:42 -24.58836 -70.35834 35021 ft 467 kts 183°
2026-04-16 04:42 -24.65328 -70.35618 35016 ft 467 kts 182°
2026-04-16 04:43 -24.71827 -70.35402 35025 ft 467 kts 182°
2026-04-16 04:43 -24.78324 -70.35178 35024 ft 467 kts 182°
2026-04-16 04:44 -24.84765 -70.34958 35023 ft 466 kts 182°
2026-04-16 04:44 -24.91249 -70.34737 35017 ft 466 kts 182°
2026-04-16 04:45 -24.97736 -70.34516 35013 ft 466 kts 182°
2026-04-16 04:45 -25.04217 -70.34301 35009 ft 465 kts 182°
2026-04-16 04:46 -25.10688 -70.34088 35010 ft 466 kts 182°
2026-04-16 04:46 -25.17167 -70.33866 35008 ft 465 kts 182°
2026-04-16 04:47 -25.23642 -70.33643 35011 ft 465 kts 182°
2026-04-16 04:47 -25.30106 -70.33429 35012 ft 465 kts 182°
2026-04-16 04:48 -25.36572 -70.33214 35005 ft 465 kts 182°
2026-04-16 04:48 -25.43002 -70.32997 35004 ft 465 kts 182°
2026-04-16 04:49 -25.49485 -70.32776 35006 ft 466 kts 182°
2026-04-16 04:49 -25.55968 -70.32556 35008 ft 466 kts 182°
2026-04-16 04:50 -25.62440 -70.32336 35001 ft 465 kts 182°
2026-04-16 04:50 -25.68921 -70.32123 35010 ft 466 kts 182°
2026-04-16 04:51 -25.75397 -70.31902 35011 ft 466 kts 182°
2026-04-16 04:51 -25.81876 -70.31678 35014 ft 466 kts 182°
2026-04-16 04:52 -25.88353 -70.31456 35010 ft 466 kts 182°
2026-04-16 04:52 -25.94788 -70.31239 35009 ft 466 kts 182°
2026-04-16 04:53 -26.01266 -70.31024 35013 ft 466 kts 182°
2026-04-16 04:53 -26.07734 -70.30914 35013 ft 462 kts 189°
2026-04-16 04:54 -26.14135 -70.31497 35013 ft 461 kts 189°
2026-04-16 04:54 -26.20535 -70.32091 35014 ft 461 kts 189°
2026-04-16 04:55 -26.26933 -70.32682 35011 ft 461 kts 189°
2026-04-16 04:55 -26.33330 -70.33274 35009 ft 461 kts 189°
2026-04-16 04:56 -26.38639 -70.33763 35009 ft 461 kts 189°
2026-04-16 04:56 -26.45029 -70.34351 35009 ft 460 kts 189°
2026-04-16 04:57 -26.51411 -70.34944 35009 ft 460 kts 189°
2026-04-16 04:57 -26.57803 -70.35537 35007 ft 461 kts 189°
2026-04-16 04:58 -26.64196 -70.36126 35008 ft 461 kts 189°
2026-04-16 04:58 -26.70580 -70.36709 35010 ft 461 kts 189°
2026-04-16 04:59 -26.76973 -70.37305 35012 ft 460 kts 189°
2026-04-16 04:59 -26.83335 -70.37897 35004 ft 460 kts 189°
2026-04-16 05:00 -26.89719 -70.38480 35008 ft 460 kts 189°
2026-04-16 05:00 -26.96088 -70.39070 35004 ft 460 kts 189°
2026-04-16 05:01 -27.02456 -70.39665 35003 ft 460 kts 189°
2026-04-16 05:01 -27.08717 -70.40258 35000 ft 460 kts 189°
2026-04-16 05:02 -27.15061 -70.40852 35001 ft 460 kts 188°
2026-04-16 05:02 -27.21446 -70.41443 35002 ft 460 kts 188°
2026-04-16 05:03 -27.27849 -70.42040 35004 ft 460 kts 188°
2026-04-16 05:04 -27.37386 -70.42927 35000 ft 460 kts 188°
2026-04-16 05:04 -27.43808 -70.43536 34993 ft 460 kts 188°
2026-04-16 05:05 -27.50162 -70.44136 34993 ft 460 kts 188°
2026-04-16 05:05 -27.56519 -70.44728 34998 ft 460 kts 188°
2026-04-16 05:06 -27.62941 -70.45332 34995 ft 460 kts 188°
2026-04-16 05:06 -27.69304 -70.45936 34999 ft 460 kts 188°
2026-04-16 05:07 -27.75676 -70.46541 35001 ft 460 kts 188°
2026-04-16 05:07 -27.82050 -70.47143 35002 ft 461 kts 189°
2026-04-16 05:08 -27.88456 -70.47747 35001 ft 461 kts 188°
2026-04-16 05:08 -27.94820 -70.48348 34999 ft 461 kts 189°
2026-04-16 05:09 -28.01241 -70.48964 35002 ft 461 kts 189°
2026-04-16 05:09 -28.07606 -70.49570 34996 ft 461 kts 189°
2026-04-16 05:10 -28.13982 -70.50173 35000 ft 461 kts 189°
2026-04-16 05:10 -28.20376 -70.50784 34999 ft 461 kts 189°
2026-04-16 05:11 -28.26762 -70.51395 35002 ft 461 kts 189°
2026-04-16 05:11 -28.33187 -70.52009 35004 ft 462 kts 189°
2026-04-16 05:12 -28.39592 -70.52618 35006 ft 462 kts 189°
2026-04-16 05:12 -28.45991 -70.53227 35009 ft 462 kts 189°
2026-04-16 05:13 -28.52385 -70.53843 35011 ft 462 kts 189°
2026-04-16 05:13 -28.58799 -70.54446 35015 ft 462 kts 189°
2026-04-16 05:14 -28.65209 -70.55035 35013 ft 462 kts 189°
2026-04-16 05:14 -28.71557 -70.55617 35018 ft 462 kts 189°
2026-04-16 05:15 -28.77998 -70.56214 35017 ft 462 kts 189°
2026-04-16 05:15 -28.84405 -70.56817 35020 ft 462 kts 189°
2026-04-16 05:16 -28.90813 -70.57420 35030 ft 462 kts 189°
2026-04-16 05:16 -28.97222 -70.58026 35036 ft 462 kts 189°
2026-04-16 05:17 -29.03630 -70.58650 35041 ft 462 kts 189°
2026-04-16 05:17 -29.10047 -70.59281 35049 ft 463 kts 190°
2026-04-16 05:18 -29.16472 -70.59910 35059 ft 463 kts 190°
2026-04-16 05:18 -29.22835 -70.60527 35067 ft 462 kts 190°
2026-04-16 05:19 -29.29247 -70.61135 35065 ft 462 kts 190°
2026-04-16 05:19 -29.35657 -70.61754 35077 ft 462 kts 190°
2026-04-16 05:20 -29.42063 -70.62384 35073 ft 462 kts 190°
2026-04-16 05:20 -29.48476 -70.63016 35079 ft 462 kts 190°
2026-04-16 05:21 -29.54888 -70.63644 35077 ft 462 kts 190°
2026-04-16 05:21 -29.61309 -70.64267 35078 ft 462 kts 190°
2026-04-16 05:22 -29.67713 -70.64891 35076 ft 462 kts 190°
2026-04-16 05:22 -29.74121 -70.65515 35079 ft 462 kts 190°
2026-04-16 05:23 -29.80525 -70.66144 35073 ft 461 kts 190°
2026-04-16 05:23 -29.86883 -70.66765 35069 ft 461 kts 190°
2026-04-16 05:24 -29.93272 -70.67394 35059 ft 460 kts 191°
2026-04-16 05:24 -29.99659 -70.68034 35069 ft 461 kts 191°
2026-04-16 05:25 -30.06041 -70.68660 35068 ft 460 kts 191°
2026-04-16 05:25 -30.12417 -70.69288 35066 ft 459 kts 191°
2026-04-16 05:26 -30.18785 -70.69914 35066 ft 459 kts 191°
2026-04-16 05:26 -30.25145 -70.70541 35067 ft 459 kts 191°
2026-04-16 05:27 -30.31498 -70.71177 35065 ft 458 kts 191°
2026-04-16 05:27 -30.37806 -70.71812 35069 ft 458 kts 191°
2026-04-16 05:28 -30.44154 -70.72435 35070 ft 457 kts 191°
2026-04-16 05:28 -30.50494 -70.73067 35072 ft 457 kts 191°
2026-04-16 05:29 -30.56822 -70.73707 35067 ft 456 kts 191°
2026-04-16 05:29 -30.63145 -70.74337 35069 ft 456 kts 191°
2026-04-16 05:30 -30.69476 -70.74948 35064 ft 456 kts 191°
2026-04-16 05:30 -30.75769 -70.75548 35066 ft 456 kts 191°
2026-04-16 05:31 -30.82087 -70.76162 35069 ft 456 kts 191°
2026-04-16 05:31 -30.88406 -70.76776 35068 ft 455 kts 191°
2026-04-16 05:32 -30.94716 -70.77390 35071 ft 455 kts 191°
2026-04-16 05:32 -31.01027 -70.78008 35078 ft 455 kts 190°
2026-04-16 05:33 -31.07289 -70.78620 35080 ft 454 kts 191°
2026-04-16 05:33 -31.13584 -70.79237 35080 ft 454 kts 191°
2026-04-16 05:34 -31.19878 -70.79852 35084 ft 454 kts 191°
2026-04-16 05:34 -31.26179 -70.80469 35085 ft 453 kts 191°
2026-04-16 05:35 -31.32462 -70.81127 35084 ft 450 kts 195°
2026-04-16 05:35 -31.38414 -70.83025 35088 ft 441 kts 204°
2026-04-16 05:36 -31.44316 -70.85281 34788 ft 456 kts 204°
2026-04-16 05:36 -31.47338 -70.86434 34546 ft 458 kts 204°
2026-04-16 05:36 -31.50379 -70.87590 34322 ft 458 kts 204°
2026-04-16 05:36 -31.53396 -70.88734 33696 ft 459 kts 204°
2026-04-16 05:37 -31.56430 -70.89881 33053 ft 454 kts 203°
2026-04-16 05:37 -31.59370 -70.90989 32423 ft 446 kts 203°
2026-04-16 05:37 -31.62331 -70.92111 31568 ft 447 kts 203°
2026-04-16 05:37 -31.65254 -70.93224 31069 ft 437 kts 203°
2026-04-16 05:38 -31.68140 -70.94327 30514 ft 435 kts 203°
2026-04-16 05:38 -31.71009 -70.95427 29942 ft 432 kts 203°
2026-04-16 05:38 -31.73873 -70.96480 29365 ft 431 kts 199°
2026-04-16 05:38 -31.76831 -70.97075 28824 ft 434 kts 189°
2026-04-16 05:39 -31.79858 -70.97103 28273 ft 435 kts 183°
2026-04-16 05:39 -31.82840 -70.96984 27738 ft 432 kts 183°
2026-04-16 05:39 -31.85872 -70.96870 27196 ft 429 kts 183°
2026-04-16 05:39 -31.88808 -70.96764 26670 ft 426 kts 183°
2026-04-16 05:40 -31.91765 -70.96658 26152 ft 424 kts 183°
2026-04-16 05:40 -31.94704 -70.96553 25641 ft 421 kts 183°
2026-04-16 05:40 -31.97623 -70.96446 25143 ft 418 kts 183°
2026-04-16 05:40 -32.00517 -70.96341 24653 ft 415 kts 182°
2026-04-16 05:41 -32.03389 -70.96236 24177 ft 412 kts 182°
2026-04-16 05:41 -32.06239 -70.96133 23716 ft 408 kts 182°
2026-04-16 05:41 -32.09065 -70.96029 23208 ft 404 kts 182°
2026-04-16 05:41 -32.11857 -70.95925 22775 ft 399 kts 182°
2026-04-16 05:42 -32.14615 -70.95820 22336 ft 394 kts 182°
2026-04-16 05:42 -32.17341 -70.95719 21910 ft 390 kts 182°
2026-04-16 05:42 -32.20045 -70.95622 21483 ft 386 kts 182°
2026-04-16 05:42 -32.22718 -70.95525 21072 ft 383 kts 182°
2026-04-16 05:43 -32.25373 -70.95428 20630 ft 380 kts 182°
2026-04-16 05:43 -32.28005 -70.95333 20209 ft 378 kts 182°
2026-04-16 05:43 -32.30629 -70.95235 19773 ft 376 kts 182°
2026-04-16 05:43 -32.33236 -70.95139 19344 ft 374 kts 182°
2026-04-16 05:44 -32.35835 -70.95047 18906 ft 373 kts 182°
2026-04-16 05:44 -32.38405 -70.94957 18471 ft 372 kts 181°
2026-04-16 05:44 -32.40989 -70.94865 18005 ft 371 kts 181°
2026-04-16 05:44 -32.43564 -70.94769 17566 ft 368 kts 181°
2026-04-16 05:45 -32.46114 -70.94670 17138 ft 366 kts 181°
2026-04-16 05:45 -32.48652 -70.94570 16717 ft 364 kts 180°
2026-04-16 05:45 -32.51175 -70.94473 16297 ft 361 kts 180°
2026-04-16 05:45 -32.53684 -70.94378 15883 ft 359 kts 180°
2026-04-16 05:46 -32.56178 -70.94285 15474 ft 358 kts 180°
2026-04-16 05:46 -32.57826 -70.94224 15198 ft 357 kts 180°
2026-04-16 05:46 -32.60317 -70.94135 14786 ft 357 kts 180°
2026-04-16 05:46 -32.62794 -70.94046 14390 ft 357 kts 180°
2026-04-16 05:47 -32.65246 -70.93957 14245 ft 347 kts 180°
2026-04-16 05:47 -32.67626 -70.93866 14134 ft 337 kts 180°
2026-04-16 05:47 -32.69934 -70.93779 14016 ft 327 kts 180°
2026-04-16 05:47 -32.72172 -70.93694 13900 ft 317 kts 180°
2026-04-16 05:48 -32.74344 -70.93612 13748 ft 308 kts 180°
2026-04-16 05:48 -32.76461 -70.93332 13459 ft 306 kts 168°
2026-04-16 05:48 -32.78539 -70.92783 13062 ft 305 kts 168°
2026-04-16 05:48 -32.80616 -70.92224 12585 ft 304 kts 168°
2026-04-16 05:49 -32.82662 -70.91671 12183 ft 302 kts 168°
2026-04-16 05:49 -32.84715 -70.91118 11802 ft 300 kts 168°
2026-04-16 05:49 -32.86740 -70.90574 11393 ft 297 kts 168°
2026-04-16 05:49 -32.88754 -70.90031 10983 ft 296 kts 167°
2026-04-16 05:50 -32.90758 -70.89492 10561 ft 294 kts 168°
2026-04-16 05:50 -32.92767 -70.89120 10144 ft 291 kts 179°
2026-04-16 05:50 -32.94784 -70.89030 9711 ft 289 kts 179°
2026-04-16 05:50 -32.96788 -70.88930 9122 ft 289 kts 178°
2026-04-16 05:51 -32.98818 -70.88823 8409 ft 293 kts 178°
2026-04-16 05:51 -33.00841 -70.88714 7979 ft 288 kts 178°
2026-04-16 05:51 -33.02820 -70.88610 7597 ft 281 kts 178°
2026-04-16 05:51 -33.04715 -70.88513 7324 ft 269 kts 178°
2026-04-16 05:52 -33.06526 -70.88421 7273 ft 254 kts 178°
2026-04-16 05:52 -33.08274 -70.88323 7142 ft 248 kts 175°
2026-04-16 05:52 -33.09895 -70.87829 7037 ft 233 kts 155°
2026-04-16 05:52 -33.11259 -70.86846 6647 ft 228 kts 144°
2026-04-16 05:53 -33.12559 -70.85780 6237 ft 224 kts 144°
2026-04-16 05:53 -33.13829 -70.84738 5859 ft 218 kts 144°
2026-04-16 05:53 -33.15072 -70.83739 5512 ft 213 kts 149°
2026-04-16 05:53 -33.16432 -70.83099 5178 ft 208 kts 167°
2026-04-16 05:54 -33.17818 -70.82757 5019 ft 197 kts 168°
2026-04-16 05:54 -33.19144 -70.82421 4954 ft 193 kts 168°
2026-04-16 05:54 -33.20448 -70.82089 4821 ft 192 kts 167°
2026-04-16 05:54 -33.21742 -70.81759 4541 ft 188 kts 167°
2026-04-16 05:55 -33.23008 -70.81435 4294 ft 184 kts 168°
2026-04-16 05:55 -33.24241 -70.81120 4061 ft 179 kts 168°
2026-04-16 05:55 -33.25473 -70.81001 3834 ft 175 kts 178°
2026-04-16 05:55 -33.26681 -70.80941 3604 ft 173 kts 177°
2026-04-16 05:56 -33.27870 -70.80879 3416 ft 169 kts 177°
2026-04-16 05:56 -33.29003 -70.80820 3172 ft 159 kts 178°
2026-04-16 05:56 -33.30079 -70.80764 2960 ft 156 kts 178°
2026-04-16 05:56 -33.31167 -70.80706 2754 ft 155 kts 178°
2026-04-16 05:57 -33.32240 -70.80647 2529 ft 154 kts 178°
2026-04-16 05:57 -33.33307 -70.80588 2328 ft 153 kts 178°
2026-04-16 05:57 -33.34368 -70.80531 2131 ft 152 kts 178°
2026-04-16 05:57 -33.35426 -70.80474 1936 ft 152 kts 178°
2026-04-16 05:58 -33.36478 -70.80418 1752 ft 151 kts 178°
2026-04-16 05:58 -33.37529 -70.80358 1601 ft 149 kts 177°
2026-04-16 05:58 -33.38455 -70.80305 1591 ft 110 kts 178°
2026-04-16 05:58 -33.39039 -70.80274 1592 ft 59 kts 177°
2026-04-16 05:59 -33.39375 -70.80257 1591 ft 45 kts 178°
2026-04-16 05:59 -33.39677 -70.80244 1590 ft 42 kts 177°
2026-04-16 05:59 -33.39884 -70.80215 1591 ft 25 kts 160°
2026-04-16 05:59 -33.39999 -70.80136 1589 ft 10 kts 147°
2026-04-16 06:00 -33.40057 -70.80092 1588 ft 10 kts 147°
2026-04-16 06:00 -33.40113 -70.80039 1586 ft 11 kts 141°
2026-04-16 06:00 -33.40166 -70.79979 1586 ft 10 kts 113°
2026-04-16 06:00 -33.40143 -70.79909 1585 ft 9 kts 27°
2026-04-16 06:01 -33.40084 -70.79903 1585 ft 8 kts 355°
2026-04-16 06:01 -33.40033 -70.79908 1586 ft 8 kts 355°
2026-04-16 06:01 -33.39968 -70.79914 1586 ft 11 kts 356°
2026-04-16 06:01 -33.39880 -70.79920 1586 ft 15 kts 357°
2026-04-16 06:02 -33.39704 -70.79933 1565 ft 12 kts 356°
2026-04-16 06:02 -33.39627 -70.79937 1565 ft 9 kts 358°
2026-04-16 06:02 -33.39576 -70.79940 1565 ft 6 kts 358°
2026-04-16 06:03 -33.39538 -70.79932 1565 ft 5 kts 44°
2026-04-16 06:03 -33.39528 -70.79869 1565 ft 10 kts 88°
2026-04-16 06:03 -33.39526 -70.79793 1565 ft 8 kts 88°
2026-04-16 06:03 -33.39524 -70.79741 1565 ft 6 kts 85°
2026-04-16 06:04 -33.39540 -70.79702 1565 ft 6 kts 175°
2026-04-16 06:04 -33.39584 -70.79697 1565 ft 5 kts 178°
2026-04-16 06:04 -33.39602 -70.79697 1565 ft 0 kts 178°